LX0WX-13 Weather Reports


Display with metric or nautical units.
time (UTC)temp
F
wind
direction
speed
MPH
gust
MPH
rain 1hr
in
rain 24hr
in
rain mn
in
humidity
%
barometer
mb
20260505075553 59 157 4.0 5.0 0.00 0.10 0.00 72 1005.5
20260505075053 60 157 4.0 5.0 0.00 0.10 0.00 76 1005.6
20260505074553 58 180 5.0 6.0 0.00 0.10 0.00 79 1005.6
20260505074053 57 135 4.0 5.0 0.00 0.10 0.00 79 1005.6
20260505073553 56 157 3.0 7.0 0.00 0.10 0.00 81 1005.6
20260505073053 56 135 4.0 5.0 0.00 0.10 0.00 83 1005.6
20260505072553 55 157 2.0 5.0 0.00 0.10 0.00 84 1005.6
20260505072053 55 180 4.0 5.0 0.00 0.10 0.00 85 1005.7
20260505071553 54 180 5.0 7.0 0.00 0.10 0.00 84 1005.7
20260505071053 54 135 2.0 5.0 0.00 0.10 0.00 85 1005.7
20260505070553 54 180 3.0 5.0 0.00 0.10 0.00 86 1005.8
20260505070053 54 180 4.0 4.0 0.00 0.10 0.00 86 1005.9
20260505065553 53 157 3.0 4.0 0.00 0.10 0.00 86 1005.8
20260505065053 53 157 1.0 2.0 0.00 0.10 0.00 86 1005.9
20260505064553 53 135 2.0 4.0 0.00 0.10 0.00 86 1005.8
20260505064053 53 135 2.0 4.0 0.00 0.10 0.00 86 1005.9
20260505063553 53 135 3.0 3.0 0.00 0.10 0.00 87 1005.8
20260505063053 53 135 2.0 3.0 0.00 0.10 0.00 87 1005.9
20260505062553 53 157 2.0 3.0 0.00 0.10 0.00 89 1005.8
20260505062053 53 135 2.0 4.0 0.00 0.10 0.00 89 1005.8
20260505061553 53 135 2.0 5.0 0.00 0.10 0.00 90 1006.0
20260505061053 54 135 4.0 5.0 0.00 0.10 0.00 93 1006.0
20260505060553 54 180 5.0 6.0 0.00 0.10 0.00 96 1006.0
20260505060053 53 180 4.0 5.0 0.00 0.10 0.00 96 1005.9
20260505055553 53 180 1.0 2.0 0.00 0.10 0.00 96 1006.0
20260505055053 53 180 0.0 2.0 0.00 0.10 0.00 96 1005.8
20260505054553 53 180 1.0 2.0 0.00 0.10 0.00 96 1005.8
20260505054053 53 180 1.0 1.0 0.00 0.10 0.00 96 1005.9
20260505053553 54 157 0.0 1.0 0.00 0.10 0.00 96 1005.8
20260505053053 54 157 1.0 1.0 0.00 0.10 0.00 96 1005.8
20260505052553 53 157 0.0 0.0 0.00 0.10 0.00 96 1005.7
20260505052053 52 157 0.0 0.0 0.00 0.10 0.00 96 1005.8
20260505051553 51 157 0.0 0.0 0.00 0.10 0.00 96 1005.8
20260505051053 51 157 0.0 0.0 0.00 0.10 0.00 96 1005.7
20260505050553 51 157 0.0 0.0 0.00 0.10 0.00 96 1005.7
20260505041554 50 157 0.0 0.0 0.00 0.10 0.00 96 1005.9
20260505041054 50 157 0.0 0.0 0.00 0.10 0.00 96 1005.9
20260505040553 50 157 0.0 0.0 0.00 0.10 0.00 96 1005.9
20260505040054 50 157 0.0 0.0 0.00 0.10 0.00 96 1006.0
20260505035554 50 157 0.0 0.0 0.00 0.10 0.00 96 1006.0
20260505035053 50 157 0.0 0.0 0.00 0.10 0.00 96 1006.0
20260505034554 50 157 0.0 0.0 0.00 0.10 0.00 96 1006.1
20260505034054 50 157 0.0 0.0 0.00 0.10 0.00 96 1006.2
20260505033554 50 157 0.0 0.0 0.00 0.10 0.00 96 1006.1
20260505033054 50 157 0.0 0.0 0.00 0.10 0.00 96 1006.2
20260505032554 50 157 0.0 0.0 0.00 0.10 0.00 96 1006.2
20260505032054 50 157 0.0 0.0 0.00 0.10 0.00 96 1006.3
20260505031554 50 157 0.0 0.0 0.00 0.10 0.00 96 1006.2
20260505031054 50 157 0.0 0.0 0.00 0.10 0.00 96 1006.3
20260505030554 50 180 0.0 0.0 0.00 0.10 0.00 96 1006.4
20260505030054 50 180 0.0 0.0 0.00 0.10 0.00 96 1006.5
20260505025554 50 180 0.0 0.0 0.00 0.10 0.00 96 1006.6
20260505025054 50 180 0.0 0.0 0.00 0.10 0.00 96 1006.6
20260505024554 50 180 0.0 0.0 0.00 0.10 0.00 96 1006.6
20260505024054 50 180 0.0 0.0 0.00 0.10 0.00 96 1006.4
20260505023554 50 180 0.0 0.0 0.00 0.10 0.00 96 1006.6
20260505023054 50 180 0.0 0.0 0.00 0.10 0.00 96 1006.5
20260505022554 50 180 0.0 0.0 0.00 0.10 0.00 96 1006.7
20260505022054 50 180 0.0 0.0 0.00 0.10 0.00 96 1006.7
20260505021554 50 180 0.0 0.0 0.00 0.10 0.00 96 1006.9
20260505021054 50 180 0.0 3.0 0.00 0.10 0.00 96 1006.9
20260505020554 50 180 0.0 0.0 0.00 0.10 0.00 96 1006.9
20260505020054 50 180 0.0 2.0 0.00 0.10 0.00 96 1006.9
20260505015554 50 180 2.0 3.0 0.00 0.10 0.00 94 1006.9
20260505015054 50 180 0.0 3.0 0.00 0.10 0.00 94 1007.0
20260505014554 50 180 2.0 5.0 0.00 0.10 0.00 94 1006.9
20260505014054 50 180 1.0 5.0 0.00 0.10 0.00 94 1006.9
20260505013554 50 180 0.0 2.0 0.00 0.10 0.00 94 1007.0
20260505013054 50 180 0.0 5.0 0.00 0.10 0.00 94 1007.0
20260505012554 50 180 4.0 4.0 0.00 0.10 0.00 94 1007.2
20260505012054 50 180 3.0 4.0 0.00 0.10 0.00 94 1007.2
20260505011554 49 180 2.0 3.0 0.00 0.10 0.00 94 1007.2
20260505011054 49 180 0.0 2.0 0.00 0.10 0.00 94 1007.4
20260505010554 50 180 1.0 6.0 0.00 0.10 0.00 94 1007.2
20260505010054 49 180 4.0 5.0 0.00 0.10 0.00 94 1007.2
20260505005554 49 180 3.0 4.0 0.00 0.10 0.00 93 1007.3
20260505005054 49 157 3.0 3.0 0.00 0.10 0.00 93 1007.3
20260505004554 49 180 2.0 3.0 0.00 0.10 0.00 93 1007.3
20260505004054 49 180 0.0 2.0 0.00 0.10 0.00 93 1007.2
20260505003554 49 180 0.0 1.0 0.00 0.10 0.00 93 1007.3
20260505003054 49 180 0.0 2.0 0.00 0.10 0.00 93 1007.3
20260505002554 49 180 2.0 4.0 0.00 0.10 0.00 93 1007.4
20260505002054 49 180 0.0 0.0 0.00 0.10 0.00 93 1007.4
20260505001555 50 180 0.0 4.0 0.00 0.10 0.00 93 1007.6
20260505001054 50 180 2.0 4.0 0.00 0.10 0.00 93 1007.5
20260505000554 50 180 3.0 3.0 0.00 0.10 0.00 93 1007.5
20260505000054 50 180 2.0 3.0 0.00 0.10 0.00 93 1007.7
20260504235554 50 157 2.0 3.0 0.00 0.10 0.00 92 1007.6
20260504235054 50 157 0.0 3.0 0.00 0.10 0.00 92 1007.6
20260504234554 50 135 2.0 4.0 0.00 0.10 0.00 92 1007.6
20260504234054 50 157 1.0 2.0 0.00 0.10 0.00 93 1007.6
20260504233554 50 202 0.0 0.0 0.00 0.10 0.00 93 1007.7
20260504233054 50 202 0.0 0.0 0.00 0.10 0.00 93 1007.7
20260504232554 50 202 0.0 0.0 0.00 0.10 0.00 93 1007.8
20260504232054 50 202 0.0 0.0 0.00 0.10 0.00 93 1007.8
20260504231554 50 202 0.0 0.0 0.00 0.10 0.00 93 1007.9
20260504231054 50 202 0.0 0.0 0.00 0.10 0.00 93 1007.8
20260504230554 50 202 0.0 0.0 0.00 0.10 0.00 92 1007.9
20260504230054 50 202 0.0 0.0 0.00 0.10 0.00 92 1007.9
20260504225554 50 202 0.0 0.0 0.00 0.10 0.00 92 1008.0
20260504225054 50 202 0.0 0.0 0.00 0.10 0.00 92 1008.0
20260504224554 50 202 0.0 0.0 0.00 0.10 0.00 92 1008.0
20260504224054 50 202 0.0 0.0 0.00 0.10 0.00 92 1008.0
20260504223554 50 202 0.0 0.0 0.00 0.10 0.00 91 1008.1
20260504223054 50 202 0.0 0.0 0.00 0.10 0.00 91 1008.3
20260504222554 50 202 0.0 0.0 0.00 0.10 0.00 91 1008.3
20260504222054 50 202 0.0 0.0 0.00 0.10 0.00 91 1008.3
20260504221554 50 202 0.0 0.0 0.00 0.10 0.00 91 1008.5
20260504221054 50 202 0.0 0.0 0.00 0.10 0.00 91 1008.5
20260504220554 50 202 0.0 0.0 0.00 0.10 0.00 91 1008.5
20260504220054 50 202 0.0 0.0 0.00 0.10 0.00 91 1008.5
20260504215554 50 202 0.0 0.0 0.00 0.10 0.00 91 1008.5
20260504215054 51 202 0.0 0.0 0.00 0.10 0.00 91 1008.6
20260504214554 51 202 0.0 0.0 0.00 0.10 0.00 91 1008.7
20260504214054 51 202 0.0 0.0 0.00 0.10 0.00 91 1008.7
20260504213554 51 202 0.0 0.0 0.00 0.10 0.00 91 1008.8
20260504213054 51 202 0.0 0.0 0.00 0.10 0.00 91 1008.7
20260504212554 51 202 0.0 0.0 0.00 0.10 0.00 91 1008.8
20260504212123 51 202 0.0 4.0 0.00 0.10 0.00 91 1008.8
20260504211554 51 180 1.0 5.0 0.00 0.10 0.00 91 1008.8
20260504211054 51 180 0.0 6.0 0.00 0.10 0.00 91 1008.9
20260504210554 51 180 4.0 4.0 0.00 0.10 0.00 91 1009.0
20260504210054 51 180 3.0 4.0 0.00 0.10 0.00 91 1009.0
20260504205554 51 157 2.0 2.0 0.00 0.10 0.00 91 1009.0
20260504205054 51 180 0.0 4.0 0.00 0.10 0.00 91 1009.1
20260504204554 51 157 0.0 4.0 0.00 0.10 0.00 91 1009.1
20260504204054 51 157 1.0 5.0 0.00 0.10 0.00 91 1009.0
20260504203556 51 180 3.0 6.0 0.00 0.10 0.00 91 1008.9
20260504203055 51 135 1.0 4.0 0.00 0.10 0.00 91 1009.1
20260504202554 51 157 2.0 4.0 0.00 0.10 0.00 91 1009.0
20260504201555 51 180 4.0 6.0 0.00 0.10 0.00 91 1009.0
20260504201055 51 157 4.0 6.0 0.00 0.10 0.00 92 1009.1
20260504200555 51 157 4.0 5.0 0.00 0.10 0.00 92 1009.0
20260504200055 51 157 3.0 4.0 0.00 0.10 0.00 92 1008.9
20260504195555 51 180 4.0 5.0 0.00 0.10 0.00 92 1009.0
20260504195055 51 180 5.0 7.0 0.00 0.10 0.00 92 1008.8
20260504194555 51 157 3.0 7.0 0.00 0.10 0.00 92 1009.0
20260504194055 51 157 2.0 4.0 0.00 0.10 0.00 92 1009.1
20260504193555 51 157 1.0 3.0 0.00 0.10 0.00 92 1009.0
20260504193055 51 135 2.0 2.0 0.00 0.10 0.00 92 1009.0
20260504192555 51 157 1.0 2.0 0.00 0.10 0.00 92 1008.9
20260504192055 51 157 2.0 2.0 0.00 0.10 0.00 92 1008.8
20260504191555 51 157 2.0 4.0 0.00 0.10 0.00 92 1008.9
20260504191055 51 157 2.0 2.0 0.00 0.10 0.00 92 1008.9
20260504190555 51 157 0.0 1.0 0.00 0.10 0.00 91 1008.9
20260504190055 51 225 0.0 0.0 0.00 0.10 0.00 91 1008.9
20260504185555 51 225 0.0 0.0 0.00 0.10 0.00 91 1008.9
20260504185055 51 225 0.0 0.0 0.00 0.10 0.00 91 1008.8
20260504184555 51 270 0.0 0.0 0.00 0.10 0.00 91 1008.8
20260504184055 51 270 0.0 0.0 0.02 0.10 0.00 91 1008.7
20260504183555 51 270 0.0 0.0 0.02 0.10 0.00 91 1008.8
20260504183055 51 270 0.0 0.0 0.02 0.10 0.00 91 1008.8
20260504182555 51 270 0.0 0.0 0.02 0.10 0.00 91 1008.9
20260504182055 51 270 0.0 0.0 0.02 0.10 0.00 91 1009.0
20260504181555 51 225 0.0 0.0 0.02 0.10 0.00 91 1009.0
20260504181055 51 225 0.0 0.0 0.02 0.10 0.00 91 1009.1
20260504180555 51 225 0.0 0.0 0.02 0.10 0.00 91 1009.1
20260504180055 51 225 0.0 0.0 0.02 0.10 0.00 91 1008.8
20260504175555 51 225 0.0 0.0 0.02 0.10 0.00 91 1008.9
20260504175055 51 225 0.0 0.0 0.02 0.10 0.00 91 1009.0
20260504174555 51 247 0.0 0.0 0.00 0.08 0.00 91 1009.0
20260504174055 51 225 0.0 3.0 0.00 0.08 0.00 91 1009.1
20260504173555 52 135 2.0 4.0 0.00 0.08 0.00 91 1009.1
20260504173055 52 135 4.0 5.0 0.00 0.08 0.00 90 1009.1
20260504172555 52 135 2.0 5.0 0.00 0.08 0.00 90 1009.1
20260504172055 52 180 4.0 5.0 0.00 0.08 0.00 90 1009.2
20260504171555 52 157 4.0 6.0 0.00 0.08 0.00 90 1009.2
20260504171055 52 180 6.0 6.0 0.00 0.08 0.00 89 1009.2
20260504170555 52 157 5.0 6.0 0.00 0.08 0.00 89 1009.2
20260504151055 53 180 3.0 3.0 0.02 0.08 0.00 84 1009.7
20260504150555 53 67 0.0 0.0 0.02 0.10 0.00 84 1009.6
20260504141055 55 22 0.0 2.0 0.00 0.08 0.00 78 1009.8
20260504140555 55 22 2.0 2.0 0.00 0.08 0.00 78 1009.8
20260504130555 56 180 2.0 4.0 0.02 0.10 0.00 79 1010.4
20260504110556 55 202 0.0 0.0 0.02 0.06 0.00 80 1010.9
20260504100556 56 180 2.0 4.0 0.00 0.04 0.00 72 1010.5
20260504081556 60 135 1.0 3.0 0.00 0.04 0.00 62 1010.4
20260504081057 61 157 3.0 5.0 0.00 0.04 0.00 62 1010.4
20260504080556 61 180 5.0 7.0 0.00 0.04 0.00 61 1010.1